TimeEET,TemperatureF,Dew PointF,Humidity,Sea Level PressureIn,VisibilityMPH,Wind Direction,Wind SpeedMPH,Gust SpeedMPH,PrecipitationIn,Events,Conditions,WindDirDegrees,DateUTC
12:50 AM,42.8,41.0,93,30.18,-9999.0,Variable,2.3,-,N/A,,Clear,0,2012-11-04 22:50:00
1:50 AM,42.8,41.0,93,30.18,-9999.0,Variable,1.2,-,N/A,,Clear,0,2012-11-04 23:50:00
2:00 AM,43,42,92,,6,NW,1.2,,,,,310,2012-11-05 00:00:00
2:50 AM,39.2,39.2,100,30.18,-9999.0,Calm,Calm,-,N/A,,Clear,0,2012-11-05 00:50:00
3:50 AM,41.0,39.2,93,30.18,-9999.0,Calm,Calm,-,N/A,,Clear,0,2012-11-05 01:50:00
4:50 AM,37.4,37.4,100,30.18,1.9,Calm,Calm,-,N/A,,Mist,0,2012-11-05 02:50:00
5:50 AM,35.6,35.6,100,30.18,0.7,Calm,Calm,-,N/A,Fog,Patches of Fog,0,2012-11-05 03:50:00
6:50 AM,35.6,35.6,100,30.21,1.9,Calm,Calm,-,N/A,,Mist,0,2012-11-05 04:50:00
7:50 AM,42.8,42.8,100,30.21,1.9,Calm,Calm,-,N/A,,Mist,0,2012-11-05 05:50:00
8:00 AM,42,42,99,,2,Calm,Calm,,,Fog,Light Fog,,2012-11-05 06:00:00
8:50 AM,50.0,42.8,76,30.21,6.2,Variable,1.2,-,N/A,,Scattered Clouds,0,2012-11-05 06:50:00
9:50 AM,55.4,42.8,63,30.21,6.2,Variable,1.2,-,N/A,,Scattered Clouds,0,2012-11-05 07:50:00
10:50 AM,59.0,42.8,55,30.18,6.2,Variable,2.3,-,N/A,,Scattered Clouds,0,2012-11-05 08:50:00
11:50 AM,62.6,41.0,45,30.15,6.2,Calm,Calm,-,N/A,,Scattered Clouds,0,2012-11-05 09:50:00
12:50 PM,64.4,39.2,40,30.15,6.2,NW,5.8,-,N/A,,Scattered Clouds,310,2012-11-05 10:50:00
1:50 PM,64.4,35.6,34,30.12,6.2,WSW,9.2,-,N/A,,Scattered Clouds,250,2012-11-05 11:50:00
2:00 PM,65,36,22,,6,WSW,9.2,,,,Partly Cloudy,250,2012-11-05 12:00:00
2:50 PM,64.4,37.4,37,30.12,6.2,West,6.9,-,N/A,,Scattered Clouds,270,2012-11-05 12:50:00
3:50 PM,60.8,39.2,45,30.12,6.2,WSW,4.6,-,N/A,,Scattered Clouds,240,2012-11-05 13:50:00
4:50 PM,57.2,39.2,51,30.12,6.2,Variable,1.2,-,N/A,,Scattered Clouds,0,2012-11-05 14:50:00
5:50 PM,53.6,39.2,58,30.15,6.2,Calm,Calm,-,N/A,,Scattered Clouds,0,2012-11-05 15:50:00
6:50 PM,53.6,39.2,58,30.15,6.2,Calm,Calm,-,N/A,,Scattered Clouds,0,2012-11-05 16:50:00
7:50 PM,48.2,39.2,71,30.15,6.2,Calm,Calm,-,N/A,,Partly Cloudy,0,2012-11-05 17:50:00
8:00 PM,47,40,69,,6,Calm,Calm,,,,Scattered Clouds,,2012-11-05 18:00:00
8:50 PM,44.6,39.2,81,30.15,6.2,Calm,Calm,-,N/A,,Partly Cloudy,0,2012-11-05 18:50:00
9:50 PM,44.6,41.0,87,30.15,6.2,Calm,Calm,-,N/A,,Partly Cloudy,0,2012-11-05 19:50:00
10:50 PM,41.0,39.2,93,30.15,-9999.0,Calm,Calm,-,N/A,,Clear,0,2012-11-05 20:50:00
11:50 PM,41.0,39.2,93,30.15,-9999.0,Calm,Calm,-,N/A,,Clear,0,2012-11-05 21:50:00